Location: Seale
(32.2974°N, 85.1688°W)
Time: 11:13:45
(UTC+00:00)

Hubble Space Telescope - Pass Details

Date: 25 January 2021
Orbit: 535 x 539 km, 28.5° (Epoch: 08 March)

Event Time Altitude Azimuth Distance (km) Brightness Sun altitude
Rises 23:28:02 0° 266° (W) 2,673 6.2 -4.8°
Reaches altitude 10° 23:30:21 10° 260° (W) 1,782 5.2 -5.3°
Maximum altitude 23:34:16 43° 188° (S) 758 1.8 -6.1°
Drops below altitude 10° 23:38:12 10° 117° (ESE) 1,783 3.0 -6.8°
Enters shadow 23:39:52 - 111° (ESE) 2,414 3.6 -7.2°
